�������l�o���
Date,Time,MP-1(��Sv/h),MP-2(��Sv/h),MP-3(��Sv/h),MP-4(��Sv/h),MP-5(��Sv/h),MP-6(��Sv/h),MP-7(��Sv/h),MP-8(��Sv/h),����,����(m/s),���J
2020/12/24,00:00,0.682,0.968,0.615,1.225,0.858,0.382,0.676,0.638,�쐼,8.1,��
2020/12/24,00:10,0.681,0.969,0.618,1.225,0.861,0.382,0.678,0.638,�쐼,7.5,��
2020/12/24,00:20,0.680,0.969,0.615,1.226,0.859,0.383,0.677,0.637,�쐼,7.8,��
2020/12/24,00:30,0.683,0.969,0.617,1.223,0.859,0.383,0.677,0.636,�쐼,7.5,��
2020/12/24,00:40,0.681,0.971,0.615,1.225,0.857,0.383,0.677,0.638,�쐼,7.0,��
2020/12/24,00:50,0.680,0.970,0.616,1.224,0.858,0.382,0.679,0.639,�쐼,7.8,��
2020/12/24,01:00,0.681,0.969,0.616,1.225,0.860,0.382,0.678,0.637,�쐼,7.6,��
2020/12/24,01:10,0.680,0.970,0.617,1.225,0.859,0.382,0.676,0.636,���쐼,7.9,��
2020/12/24,01:20,0.683,0.972,0.616,1.224,0.859,0.384,0.678,0.638,�쐼,7.1,��
2020/12/24,01:30,0.680,0.970,0.617,1.224,0.859,0.382,0.677,0.638,�쐼,8.4,��
2020/12/24,01:40,0.681,0.969,0.617,1.223,0.856,0.383,0.680,0.637,�쐼,7.4,��
2020/12/24,01:50,0.682,0.970,0.618,1.223,0.858,0.383,0.679,0.638,�쐼,5.1,��
2020/12/24,02:00,0.682,0.969,0.617,1.223,0.858,0.384,0.678,0.638,�쐼,5.2,��
2020/12/24,02:10,0.682,0.968,0.615,1.221,0.860,0.383,0.677,0.638,��쐼,5.4,��
2020/12/24,02:20,0.681,0.967,0.618,1.225,0.860,0.381,0.678,0.637,��쐼,5.5,��
2020/12/24,02:30,0.682,0.971,0.617,1.225,0.858,0.383,0.677,0.640,��쐼,4.3,��
2020/12/24,02:40,0.681,0.967,0.617,1.225,0.860,0.384,0.678,0.638,�쐼,3.7,��
2020/12/24,02:50,0.680,0.971,0.615,1.223,0.861,0.383,0.679,0.638,�쐼,3.4,��
2020/12/24,03:00,0.681,0.972,0.617,1.226,0.859,0.384,0.679,0.640,�쐼,4.2,��
2020/12/24,03:10,0.684,0.972,0.617,1.227,0.860,0.383,0.679,0.639,�쐼,4.5,��
2020/12/24,03:20,0.681,0.970,0.617,1.228,0.859,0.384,0.677,0.639,��쐼,3.9,��
2020/12/24,03:30,0.683,0.970,0.615,1.225,0.860,0.383,0.679,0.638,��쐼,3.3,��
2020/12/24,03:40,0.680,0.969,0.615,1.227,0.858,0.383,0.678,0.638,��쐼,2.9,��
2020/12/24,03:50,0.682,0.970,0.616,1.224,0.857,0.384,0.681,0.638,�쐼,3.4,��
2020/12/24,04:00,0.682,0.972,0.616,1.222,0.858,0.384,0.679,0.638,�쐼,4.2,��
2020/12/24,04:10,0.680,0.972,0.616,1.225,0.860,0.383,0.680,0.639,���쐼,4.9,��
2020/12/24,04:20,0.679,0.968,0.616,1.223,0.857,0.383,0.679,0.637,�쐼,4.8,��
2020/12/24,04:30,0.680,0.969,0.616,1.224,0.861,0.383,0.678,0.637,���쐼,5.5,��
2020/12/24,04:40,0.680,0.970,0.616,1.225,0.860,0.382,0.678,0.638,���쐼,5.2,��
2020/12/24,04:50,0.681,0.969,0.616,1.225,0.858,0.383,0.678,0.638,���쐼,5.4,��
2020/12/24,05:00,0.680,0.968,0.615,1.222,0.859,0.383,0.678,0.640,���쐼,5.3,��
2020/12/24,05:10,0.680,0.968,0.617,1.224,0.858,0.384,0.678,0.639,���쐼,6.0,��
2020/12/24,05:20,0.683,0.969,0.616,1.224,0.858,0.383,0.677,0.636,���쐼,6.1,��
2020/12/24,05:30,0.680,0.968,0.617,1.224,0.858,0.384,0.678,0.638,�쐼,5.8,��
2020/12/24,05:40,0.682,0.969,0.616,1.223,0.858,0.383,0.678,0.636,�쐼,4.9,��
2020/12/24,05:50,0.680,0.969,0.616,1.227,0.858,0.383,0.677,0.639,�쐼,3.7,��
2020/12/24,06:00,0.682,0.969,0.618,1.224,0.859,0.383,0.679,0.639,���쐼,4.1,��
2020/12/24,06:10,0.680,0.967,0.616,1.226,0.859,0.384,0.679,0.638,�쐼,3.3,��
2020/12/24,06:20,0.681,0.968,0.616,1.224,0.860,0.382,0.679,0.638,�쐼,3.9,��
2020/12/24,06:30,0.680,0.971,0.614,1.224,0.861,0.382,0.679,0.639,��쐼,3.5,��
2020/12/24,06:40,0.680,0.967,0.617,1.224,0.860,0.384,0.678,0.638,��,2.8,��
2020/12/24,06:50,0.681,0.969,0.617,1.223,0.859,0.384,0.678,0.637,��,2.2,��
2020/12/24,07:00,0.681,0.970,0.617,1.225,0.861,0.384,0.678,0.638,��,2.3,��
2020/12/24,07:10,0.682,0.969,0.618,1.224,0.858,0.384,0.679,0.637,��쐼,3.3,��
2020/12/24,07:20,0.683,0.968,0.616,1.222,0.857,0.382,0.678,0.638,��쐼,3.2,��
2020/12/24,07:30,0.679,0.971,0.616,1.225,0.861,0.383,0.677,0.638,��,3.2,��
2020/12/24,07:40,0.681,0.971,0.616,1.224,0.856,0.383,0.676,0.638,��,2.3,��
2020/12/24,07:50,0.681,0.968,0.617,1.226,0.862,0.384,0.677,0.638,��,4.2,��
2020/12/24,08:00,0.681,0.971,0.616,1.226,0.859,0.382,0.678,0.639,��,4.9,��
2020/12/24,08:10,0.681,0.969,0.617,1.224,0.858,0.383,0.677,0.639,��,4.9,��
2020/12/24,08:20,0.681,0.969,0.617,1.224,0.859,0.382,0.678,0.638,��,4.9,��
2020/12/24,08:30,0.682,0.970,0.617,1.225,0.858,0.382,0.678,0.638,��,6.3,��
2020/12/24,08:40,0.682,0.969,0.617,1.224,0.857,0.383,0.678,0.639,��,6.6,��
2020/12/24,08:50,0.683,0.968,0.616,1.224,0.858,0.384,0.680,0.638,��,5.7,��
2020/12/24,09:00,0.683,0.968,0.617,1.224,0.859,0.383,0.679,0.640,��쐼,5.1,��
2020/12/24,09:10,0.683,0.968,0.615,1.224,0.859,0.384,0.681,0.639,��,5.3,��
2020/12/24,09:20,0.683,0.967,0.619,1.225,0.858,0.383,0.681,0.639,��,3.0,��
2020/12/24,09:30,0.685,0.968,0.620,1.227,0.860,0.383,0.680,0.637,��,2.3,��
2020/12/24,09:40,0.683,0.966,0.618,1.224,0.860,0.384,0.678,0.637,��쓌,4.3,��
2020/12/24,09:50,0.683,0.968,0.617,1.225,0.859,0.385,0.679,0.638,��쓌,5.2,��
2020/12/24,10:00,0.684,0.968,0.617,1.225,0.861,0.384,0.677,0.638,��쓌,4.8,��
2020/12/24,10:10,0.683,0.965,0.617,1.226,0.861,0.385,0.679,0.640,��,4.0,��
2020/12/24,10:20,0.684,0.964,0.618,1.227,0.859,0.385,0.678,0.639,��,5.3,��
2020/12/24,10:30,0.683,0.963,0.617,1.225,0.860,0.385,0.679,0.639,��,4.3,��
2020/12/24,10:40,0.683,0.966,0.619,1.226,0.859,0.385,0.678,0.638,��,4.3,��
2020/12/24,10:50,0.683,0.968,0.616,1.226,0.859,0.384,0.677,0.639,��쓌,5.4,��
2020/12/24,11:00,0.682,0.966,0.618,1.226,0.860,0.384,0.678,0.639,��쓌,4.0,��
2020/12/24,11:10,0.682,0.968,0.619,1.227,0.860,0.384,0.680,0.639,��쓌,4.7,��
2020/12/24,11:20,0.682,0.967,0.618,1.224,0.859,0.386,0.679,0.638,��쓌,3.1,��
2020/12/24,11:30,0.684,0.965,0.617,1.227,0.861,0.383,0.678,0.639,�쓌,1.7,��
2020/12/24,11:40,0.679,0.967,0.619,1.227,0.861,0.384,0.677,0.639,�k�k��,0.9,��
2020/12/24,11:50,0.682,0.968,0.618,1.226,0.861,0.382,0.679,0.639,�k�k��,2.0,��
2020/12/24,12:00,0.683,0.969,0.617,1.227,0.862,0.384,0.679,0.638,�k,1.7,��
2020/12/24,12:10,0.686,0.970,0.619,1.226,0.862,0.385,0.680,0.639,���k��,0.9,��
2020/12/24,12:20,0.685,0.967,0.619,1.227,0.862,0.385,0.680,0.640,��쓌,1.7,��
2020/12/24,12:30,0.684,0.966,0.619,1.227,0.862,0.385,0.682,0.638,-,CALM,��
2020/12/24,12:40,0.684,0.969,0.620,1.228,0.862,0.385,0.680,0.639,���k��,0.6,��
2020/12/24,12:50,0.683,0.967,0.619,1.227,0.863,0.385,0.681,0.641,��,0.6,��
2020/12/24,13:00,0.684,0.967,0.620,1.227,0.863,0.386,0.680,0.639,��쓌,2.0,��
2020/12/24,13:10,0.685,0.966,0.620,1.227,0.863,0.387,0.680,0.640,�쓌,2.3,��
2020/12/24,13:20,0.684,0.970,0.619,1.225,0.864,0.386,0.679,0.640,��쓌,2.8,��
2020/12/24,13:30,0.684,0.969,0.616,1.230,0.863,0.385,0.679,0.640,��쐼,2.5,��
2020/12/24,13:40,0.683,0.969,0.619,1.225,0.862,0.384,0.679,0.637,�쐼,2.3,��
2020/12/24,13:50,0.683,0.967,0.617,1.228,0.860,0.385,0.679,0.638,���쐼,6.1,��
2020/12/24,14:00,0.684,0.965,0.617,1.228,0.860,0.385,0.680,0.637,��,6.1,��
2020/12/24,14:10,0.680,0.968,0.618,1.227,0.860,0.385,0.681,0.638,��,4.1,��
2020/12/24,14:20,0.682,0.969,0.617,1.228,0.861,0.385,0.679,0.638,���k��,5.2,��
2020/12/24,14:30,0.682,0.967,0.618,1.223,0.861,0.386,0.680,0.638,���쐼,6.1,��
2020/12/24,14:40,0.685,0.968,0.620,1.226,0.863,0.387,0.681,0.638,��,6.1,��
2020/12/24,14:50,0.686,0.972,0.620,1.225,0.861,0.385,0.681,0.640,��,6.3,��
2020/12/24,15:00,0.685,0.972,0.622,1.228,0.861,0.385,0.679,0.640,-,CALM,��
2020/12/24,15:10,0.682,0.974,0.618,1.228,0.862,0.384,0.678,0.641,���쐼,3.4,��
2020/12/24,15:20,0.683,0.975,0.620,1.227,0.863,0.386,0.680,0.641,���쐼,4.2,��
2020/12/24,15:30,0.684,0.972,0.621,1.225,0.864,0.384,0.680,0.639,�쐼,2.9,��
2020/12/24,15:40,0.683,0.971,0.619,1.227,0.863,0.385,0.681,0.641,��쐼,3.8,��
2020/12/24,15:50,0.684,0.972,0.622,1.226,0.863,0.386,0.681,0.640,���쐼,6.5,��
2020/12/24,16:00,0.685,0.974,0.621,1.227,0.861,0.385,0.679,0.640,���쐼,3.7,��
2020/12/24,16:10,0.684,0.974,0.620,1.227,0.863,0.387,0.679,0.640,��쐼,3.8,��
2020/12/24,16:20,0.686,0.975,0.620,1.226,0.865,0.386,0.680,0.640,�쐼,3.3,��
2020/12/24,16:30,0.684,0.974,0.618,1.228,0.863,0.386,0.680,0.639,�쐼,4.6,��
2020/12/24,16:40,0.683,0.973,0.620,1.228,0.864,0.384,0.681,0.639,��쐼,4.3,��
2020/12/24,16:50,0.685,0.973,0.620,1.227,0.864,0.385,0.680,0.639,�쐼,3.8,��
2020/12/24,17:00,0.685,0.974,0.618,1.227,0.863,0.385,0.680,0.641,�쐼,3.4,��
2020/12/24,17:10,0.685,0.977,0.619,1.226,0.865,0.385,0.681,0.641,��쐼,3.2,��
2020/12/24,17:20,0.685,0.975,0.619,1.226,0.863,0.385,0.680,0.641,��쓌,4.7,��
2020/12/24,17:30,0.684,0.976,0.621,1.229,0.865,0.384,0.680,0.641,��쓌,6.0,��
2020/12/24,17:40,0.683,0.976,0.620,1.229,0.864,0.385,0.681,0.639,��,6.2,��
2020/12/24,17:50,0.686,0.973,0.619,1.226,0.863,0.386,0.682,0.641,��,5.9,��
2020/12/24,18:00,0.684,0.973,0.619,1.229,0.863,0.385,0.682,0.639,��쐼,5.6,��
2020/12/24,18:10,0.685,0.976,0.620,1.229,0.864,0.385,0.681,0.639,��쐼,5.7,��
2020/12/24,18:20,0.683,0.974,0.619,1.228,0.861,0.386,0.679,0.640,��쐼,4.6,��
2020/12/24,18:30,0.685,0.974,0.618,1.228,0.865,0.386,0.681,0.640,��쐼,5.5,��
2020/12/24,18:40,0.686,0.974,0.620,1.228,0.863,0.387,0.681,0.640,��쐼,6.3,��
2020/12/24,18:50,0.684,0.975,0.620,1.227,0.862,0.385,0.681,0.641,��,6.0,��
2020/12/24,19:00,0.685,0.974,0.620,1.228,0.865,0.385,0.683,0.639,��쐼,5.9,��
2020/12/24,19:10,0.685,0.975,0.619,1.227,0.862,0.386,0.679,0.639,��쐼,5.7,��
2020/12/24,19:20,0.685,0.975,0.621,1.226,0.864,0.386,0.683,0.639,��쐼,5.2,��
2020/12/24,19:30,0.686,0.975,0.620,1.229,0.866,0.385,0.681,0.641,��쐼,5.2,��
2020/12/24,19:40,0.684,0.974,0.620,1.227,0.861,0.385,0.681,0.639,��쐼,4.6,��
2020/12/24,19:50,0.685,0.976,0.620,1.226,0.865,0.386,0.682,0.639,�쐼,5.2,��
2020/12/24,20:00,0.685,0.976,0.619,1.228,0.865,0.387,0.682,0.639,�쐼,5.4,��
2020/12/24,20:10,0.684,0.976,0.620,1.227,0.864,0.386,0.682,0.641,�쐼,5.6,��
2020/12/24,20:20,0.684,0.974,0.621,1.227,0.862,0.385,0.683,0.640,���쐼,4.3,��
2020/12/24,20:30,0.684,0.973,0.621,1.228,0.863,0.384,0.680,0.641,���쐼,4.2,��
2020/12/24,20:40,0.684,0.972,0.620,1.228,0.863,0.385,0.683,0.638,���쐼,3.9,��
2020/12/24,20:50,0.685,0.975,0.620,1.227,0.865,0.386,0.683,0.639,���k��,3.4,��
2020/12/24,21:00,0.685,0.974,0.619,1.230,0.862,0.387,0.682,0.640,���k��,2.8,��
2020/12/24,21:10,0.687,0.975,0.620,1.227,0.863,0.386,0.682,0.640,���쐼,1.9,��
2020/12/24,21:20,0.686,0.973,0.620,1.224,0.865,0.385,0.680,0.639,���쐼,1.7,��
2020/12/24,21:30,0.685,0.975,0.620,1.228,0.864,0.385,0.681,0.639,��,2.8,��
2020/12/24,21:40,0.684,0.973,0.619,1.228,0.865,0.385,0.680,0.642,�k�k��,2.0,��
2020/12/24,21:50,0.684,0.975,0.619,1.229,0.864,0.386,0.680,0.638,�k,1.5,��
2020/12/24,22:00,0.685,0.972,0.619,1.228,0.862,0.385,0.682,0.639,���k��,0.9,��
2020/12/24,22:10,0.685,0.973,0.621,1.226,0.864,0.386,0.681,0.639,��,0.9,��
2020/12/24,22:20,0.685,0.972,0.619,1.226,0.863,0.385,0.680,0.638,�쓌,0.6,��
2020/12/24,22:30,0.685,0.974,0.620,1.227,0.862,0.386,0.682,0.639,���k��,0.6,��
2020/12/24,22:40,0.685,0.973,0.620,1.227,0.864,0.385,0.679,0.639,��,6.1,��
2020/12/24,22:50,0.684,0.972,0.621,1.226,0.861,0.385,0.681,0.640,���쐼,5.4,��
2020/12/24,23:00,0.687,0.973,0.618,1.227,0.863,0.386,0.681,0.640,��,4.7,��
2020/12/24,23:10,0.685,0.973,0.619,1.227,0.863,0.386,0.682,0.640,�쐼,3.4,��
2020/12/24,23:20,0.685,0.974,0.620,1.227,0.863,0.385,0.682,0.639,�쐼,2.6,��
2020/12/24,23:30,0.682,0.974,0.619,1.225,0.864,0.386,0.679,0.641,���쐼,2.6,��
2020/12/24,23:40,0.685,0.976,0.619,1.227,0.864,0.386,0.681,0.639,�쐼,2.6,��
2020/12/24,23:50,0.685,0.974,0.620,1.225,0.864,0.387,0.679,0.639,��,3.4,��
